| time (UTC) | temp C | wind direction | speed KPH | gust KPH | rain 1hr cm | rain 24hr cm | rain mn cm | humidity % | barometer mb |
| 20260503050514 | 1 | 22 | 0.0 | 0.0 | 0.00 | 0.00 | 0.00 | 70 | 1017.0 |
| 20260503050013 | 1 | 343 | 0.0 | 0.0 | 0.00 | 0.00 | 0.00 | 69 | 1017.0 |
| 20260503045510 | 1 | 347 | 0.0 | 0.0 | 0.00 | 0.00 | 0.00 | 68 | 1017.1 |
| 20260503045007 | 1 | 351 | 0.0 | 0.0 | 0.00 | 0.00 | 0.00 | 69 | 1017.2 |
| 20260503044503 | 2 | 346 | 0.0 | 0.0 | 0.00 | 0.00 | 0.00 | 67 | 1017.1 |
| 20260503044001 | 2 | 343 | 0.0 | 1.6 | 0.00 | 0.00 | 0.00 | 65 | 1017.2 |
| 20260503043456 | 2 | 345 | 0.0 | 0.0 | 0.00 | 0.00 | 0.00 | 65 | 1017.2 |
| 20260503042953 | 2 | 349 | 0.0 | 0.0 | 0.00 | 0.00 | 0.00 | 65 | 1017.1 |
| 20260503042450 | 2 | 336 | 0.0 | 0.0 | 0.00 | 0.00 | 0.00 | 66 | 1017.1 |
| 20260503041947 | 2 | 351 | 0.0 | 0.0 | 0.00 | 0.00 | 0.00 | 67 | 1017.2 |
| 20260503041443 | 1 | 351 | 0.0 | 0.0 | 0.00 | 0.00 | 0.00 | 68 | 1017.0 |
| 20260503040941 | 1 | 334 | 0.0 | 0.0 | 0.00 | 0.00 | 0.00 | 70 | 1017.3 |
| 20260503040438 | 2 | 336 | 0.0 | 0.0 | 0.00 | 0.00 | 0.00 | 68 | 1017.3 |
| 20260503035935 | 2 | 341 | 0.0 | 0.0 | 0.00 | 0.00 | 0.00 | 69 | 1017.3 |
| 20260503035432 | 2 | 355 | 0.0 | 0.0 | 0.00 | 0.00 | 0.00 | 68 | 1017.2 |
| 20260503034929 | 2 | 354 | 0.0 | 0.0 | 0.00 | 0.00 | 0.00 | 67 | 1017.3 |
| 20260503034427 | 2 | 322 | 0.0 | 0.0 | 0.00 | 0.00 | 0.00 | 65 | 1017.3 |
| 20260503033924 | 2 | 338 | 0.0 | 0.0 | 0.00 | 0.00 | 0.00 | 66 | 1017.4 |
| 20260503033421 | 2 | 330 | 0.0 | 1.6 | 0.00 | 0.00 | 0.00 | 65 | 1017.5 |
| 20260503032919 | 3 | 341 | 0.0 | 0.0 | 0.00 | 0.00 | 0.00 | 65 | 1017.3 |
| 20260503032418 | 3 | 338 | 0.0 | 0.0 | 0.00 | 0.00 | 0.00 | 64 | 1017.3 |
| 20260503031915 | 3 | 315 | 0.0 | 3.2 | 0.00 | 0.00 | 0.00 | 65 | 1017.3 |
| 20260503031413 | 3 | 325 | 0.0 | 3.2 | 0.00 | 0.00 | 0.00 | 64 | 1017.4 |
| 20260503030909 | 3 | 304 | 0.0 | 1.6 | 0.00 | 0.00 | 0.00 | 64 | 1017.4 |
| 20260503030406 | 3 | 321 | 0.0 | 1.6 | 0.00 | 0.00 | 0.00 | 63 | 1017.5 |
| 20260503025902 | 3 | 321 | 0.0 | 1.6 | 0.00 | 0.00 | 0.00 | 63 | 1017.5 |
| 20260503025359 | 3 | 325 | 0.0 | 0.0 | 0.00 | 0.00 | 0.00 | 64 | 1017.5 |
| 20260503024857 | 3 | 336 | 0.0 | 0.0 | 0.00 | 0.00 | 0.00 | 65 | 1017.5 |
| 20260503024353 | 3 | 340 | 0.0 | 0.0 | 0.00 | 0.00 | 0.00 | 64 | 1017.6 |
| 20260503023850 | 3 | 335 | 0.0 | 0.0 | 0.00 | 0.00 | 0.00 | 65 | 1017.5 |
| 20260503023347 | 3 | 343 | 0.0 | 1.6 | 0.00 | 0.00 | 0.00 | 64 | 1017.5 |
| 20260503022843 | 3 | 336 | 0.0 | 0.0 | 0.00 | 0.00 | 0.00 | 64 | 1017.5 |
| 20260503022338 | 3 | 344 | 0.0 | 0.0 | 0.00 | 0.00 | 0.00 | 62 | 1017.5 |
| 20260503021835 | 3 | 333 | 0.0 | 0.0 | 0.00 | 0.00 | 0.00 | 63 | 1017.8 |
| 20260503021331 | 3 | 295 | 0.0 | 0.0 | 0.00 | 0.00 | 0.00 | 63 | 1017.4 |
| 20260503020829 | 4 | 344 | 0.0 | 3.2 | 0.00 | 0.00 | 0.00 | 63 | 1017.4 |
| 20260503020327 | 3 | 345 | 0.0 | 3.2 | 0.00 | 0.00 | 0.00 | 62 | 1017.3 |
| 20260503015823 | 4 | 342 | 0.0 | 0.0 | 0.00 | 0.00 | 0.00 | 62 | 1017.5 |
| 20260503015320 | 5 | 341 | 0.0 | 1.6 | 0.00 | 0.00 | 0.00 | 61 | 1017.3 |
| 20260503014815 | 5 | 341 | 0.0 | 1.6 | 0.00 | 0.00 | 0.00 | 62 | 1017.6 |
| 20260503014314 | 5 | 331 | 0.0 | 0.0 | 0.00 | 0.00 | 0.00 | 61 | 1017.2 |
| 20260503013810 | 5 | 332 | 0.0 | 1.6 | 0.00 | 0.00 | 0.00 | 61 | 1017.3 |
| 20260503013308 | 5 | 330 | 0.0 | 0.0 | 0.00 | 0.00 | 0.00 | 62 | 1017.3 |
| 20260503012805 | 5 | 324 | 0.0 | 1.6 | 0.00 | 0.00 | 0.00 | 59 | 1017.6 |
| 20260503012305 | 5 | 297 | 3.2 | 3.2 | 0.00 | 0.00 | 0.00 | 59 | 1017.3 |
| 20260503011759 | 5 | 269 | 1.6 | 3.2 | 0.00 | 0.00 | 0.00 | 59 | 1017.1 |
| 20260503011256 | 5 | 314 | 0.0 | 3.2 | 0.00 | 0.00 | 0.00 | 59 | 1017.4 |
| 20260503010752 | 6 | 320 | 0.0 | 3.2 | 0.00 | 0.00 | 0.00 | 58 | 1017.3 |
| 20260503010249 | 6 | 275 | 1.6 | 3.2 | 0.00 | 0.00 | 0.00 | 57 | 1017.3 |
| 20260503005746 | 6 | 298 | 1.6 | 1.6 | 0.00 | 0.00 | 0.00 | 56 | 1017.2 |
| 20260503005244 | 6 | 327 | 1.6 | 3.2 | 0.00 | 0.00 | 0.00 | 56 | 1017.4 |
| 20260503004739 | 6 | 325 | 0.0 | 1.6 | 0.00 | 0.00 | 0.00 | 56 | 1017.4 |
| 20260503004238 | 6 | 358 | 1.6 | 3.2 | 0.00 | 0.00 | 0.00 | 54 | 1017.2 |
| 20260503003735 | 7 | 306 | 1.6 | 3.2 | 0.00 | 0.00 | 0.00 | 54 | 1017.1 |
| 20260503003232 | 7 | 290 | 4.8 | 6.4 | 0.00 | 0.00 | 0.00 | 51 | 1017.2 |
| 20260503002728 | 7 | 297 | 1.6 | 4.8 | 0.00 | 0.00 | 0.00 | 51 | 1017.0 |
| 20260503002226 | 7 | 265 | 6.4 | 6.4 | 0.00 | 0.00 | 0.00 | 49 | 1017.0 |
| 20260503001721 | 7 | 275 | 4.8 | 9.7 | 0.00 | 0.00 | 0.00 | 48 | 1017.1 |
| 20260503001218 | 8 | 267 | 4.8 | 6.4 | 0.00 | 0.00 | 0.00 | 48 | 1017.3 |
| 20260503000716 | 8 | 305 | 3.2 | 9.7 | 0.00 | 0.00 | 0.00 | 47 | 1016.9 |
| 20260503000213 | 8 | 287 | 8.0 | 9.7 | 0.00 | 0.00 | 0.00 | 47 | 1017.1 |
| 20260502235710 | 8 | 283 | 8.0 | 12.9 | 0.00 | 0.00 | 0.00 | 48 | 1017.1 |
| 20260502235208 | 8 | 276 | 9.7 | 11.3 | 0.00 | 0.00 | 0.00 | 48 | 1017.1 |
| 20260502234704 | 8 | 257 | 11.3 | 14.5 | 0.00 | 0.00 | 0.00 | 48 | 1017.2 |
| 20260502234201 | 8 | 267 | 8.0 | 9.7 | 0.00 | 0.00 | 0.00 | 47 | 1017.1 |
| 20260502233657 | 8 | 273 | 3.2 | 9.7 | 0.00 | 0.00 | 0.00 | 46 | 1017.3 |
| 20260502233154 | 8 | 275 | 14.5 | 14.5 | 0.00 | 0.00 | 0.00 | 46 | 1017.2 |
| 20260502232650 | 8 | 276 | 6.4 | 12.9 | 0.00 | 0.00 | 0.00 | 47 | 1017.1 |
| 20260502232148 | 8 | 287 | 9.7 | 11.3 | 0.00 | 0.00 | 0.00 | 47 | 1017.2 |
| 20260502231644 | 8 | 267 | 9.7 | 12.9 | 0.00 | 0.00 | 0.00 | 49 | 1017.3 |
| 20260502231141 | 8 | 280 | 8.0 | 12.9 | 0.00 | 0.00 | 0.00 | 47 | 1017.2 |
| 20260502230639 | 8 | 272 | 9.7 | 11.3 | 0.00 | 0.00 | 0.00 | 49 | 1017.3 |
| 20260502230132 | 8 | 279 | 11.3 | 17.7 | 0.00 | 0.00 | 0.00 | 48 | 1017.3 |
| 20260502225627 | 8 | 270 | 9.7 | 14.5 | 0.00 | 0.00 | 0.00 | 50 | 1017.2 |
| 20260502225125 | 8 | 285 | 16.1 | 17.7 | 0.00 | 0.00 | 0.00 | 46 | 1017.4 |
| 20260502224621 | 8 | 286 | 6.4 | 6.4 | 0.00 | 0.00 | 0.00 | 48 | 1017.2 |
| 20260502224118 | 8 | 276 | 6.4 | 11.3 | 0.00 | 0.00 | 0.00 | 49 | 1017.5 |
| 20260502223616 | 8 | 315 | 11.3 | 14.5 | 0.00 | 0.00 | 0.00 | 47 | 1017.5 |
| 20260502223114 | 8 | 307 | 9.7 | 12.9 | 0.00 | 0.00 | 0.00 | 46 | 1017.3 |
| 20260502222611 | 8 | 287 | 9.7 | 14.5 | 0.00 | 0.00 | 0.00 | 46 | 1017.4 |
| 20260502222107 | 8 | 289 | 9.7 | 11.3 | 0.00 | 0.00 | 0.00 | 47 | 1017.3 |
| 20260502221603 | 8 | 285 | 6.4 | 11.3 | 0.00 | 0.00 | 0.00 | 49 | 1017.4 |
| 20260502221100 | 8 | 356 | 6.4 | 12.9 | 0.00 | 0.00 | 0.00 | 50 | 1017.6 |
| 20260502220556 | 8 | 301 | 12.9 | 16.1 | 0.00 | 0.00 | 0.00 | 48 | 1017.6 |
| 20260502220053 | 8 | 262 | 14.5 | 16.1 | 0.00 | 0.00 | 0.00 | 48 | 1017.3 |
| 20260502215550 | 8 | 297 | 6.4 | 14.5 | 0.00 | 0.00 | 0.00 | 49 | 1017.3 |
| 20260502215047 | 8 | 301 | 9.7 | 12.9 | 0.00 | 0.00 | 0.00 | 50 | 1017.4 |
| 20260502214544 | 8 | 297 | 4.8 | 12.9 | 0.00 | 0.00 | 0.00 | 48 | 1017.4 |
| 20260502214041 | 8 | 286 | 12.9 | 20.9 | 0.00 | 0.00 | 0.00 | 47 | 1017.4 |
| 20260502213538 | 8 | 300 | 8.0 | 11.3 | 0.00 | 0.00 | 0.00 | 47 | 1017.4 |
| 20260502213036 | 8 | 277 | 6.4 | 12.9 | 0.00 | 0.00 | 0.00 | 50 | 1017.4 |
| 20260502212535 | 8 | 271 | 9.7 | 16.1 | 0.00 | 0.00 | 0.00 | 50 | 1017.4 |
| 20260502212032 | 8 | 270 | 12.9 | 14.5 | 0.00 | 0.00 | 0.00 | 49 | 1017.5 |
| 20260502211527 | 8 | 316 | 11.3 | 12.9 | 0.00 | 0.00 | 0.00 | 50 | 1017.5 |
| 20260502211025 | 7 | 309 | 9.7 | 11.3 | 0.00 | 0.00 | 0.00 | 48 | 1017.6 |
| 20260502210521 | 7 | 311 | 6.4 | 9.7 | 0.00 | 0.00 | 0.00 | 52 | 1017.6 |
| 20260502210019 | 7 | 303 | 9.7 | 12.9 | 0.00 | 0.00 | 0.00 | 50 | 1017.6 |
| 20260502205515 | 8 | 309 | 6.4 | 11.3 | 0.00 | 0.00 | 0.00 | 49 | 1017.7 |
| 20260502205012 | 7 | 340 | 11.3 | 12.9 | 0.00 | 0.00 | 0.00 | 50 | 1017.6 |
| 20260502204509 | 7 | 310 | 11.3 | 16.1 | 0.00 | 0.00 | 0.00 | 50 | 1017.7 |
| 20260502204007 | 7 | 305 | 14.5 | 16.1 | 0.00 | 0.00 | 0.00 | 49 | 1017.8 |
| 20260502203504 | 7 | 288 | 16.1 | 17.7 | 0.00 | 0.00 | 0.00 | 49 | 1017.7 |
| 20260502203001 | 7 | 276 | 14.5 | 16.1 | 0.00 | 0.00 | 0.00 | 48 | 1017.9 |
| 20260502202457 | 7 | 298 | 6.4 | 14.5 | 0.00 | 0.00 | 0.00 | 49 | 1017.9 |
| 20260502201955 | 8 | 303 | 9.7 | 12.9 | 0.00 | 0.00 | 0.00 | 48 | 1018.0 |
| 20260502201450 | 8 | 324 | 14.5 | 14.5 | 0.00 | 0.00 | 0.00 | 46 | 1017.9 |
| 20260502200947 | 7 | 304 | 11.3 | 12.9 | 0.00 | 0.00 | 0.00 | 50 | 1018.0 |
| 20260502200443 | 7 | 312 | 9.7 | 11.3 | 0.00 | 0.00 | 0.00 | 48 | 1018.1 |
| 20260502195941 | 7 | 312 | 9.7 | 11.3 | 0.00 | 0.00 | 0.00 | 48 | 1018.1 |
| 20260502195438 | 7 | 302 | 17.7 | 20.9 | 0.00 | 0.00 | 0.00 | 47 | 1018.2 |
| 20260502194934 | 7 | 313 | 14.5 | 14.5 | 0.00 | 0.00 | 0.00 | 47 | 1018.1 |
| 20260502194431 | 7 | 313 | 14.5 | 14.5 | 0.00 | 0.00 | 0.00 | 47 | 1018.2 |
| 20260502193927 | 7 | 313 | 14.5 | 14.5 | 0.00 | 0.00 | 0.00 | 47 | 1018.5 |
| 20260502193425 | 7 | 331 | 8.0 | 11.3 | 0.00 | 0.00 | 0.00 | 52 | 1018.5 |
| 20260502192920 | 7 | 331 | 8.0 | 11.3 | 0.00 | 0.00 | 0.00 | 52 | 1018.4 |
| 20260502192417 | 7 | 331 | 8.0 | 11.3 | 0.00 | 0.00 | 0.00 | 52 | 1018.6 |
| 20260502191914 | 7 | 316 | 9.7 | 11.3 | 0.00 | 0.00 | 0.00 | 49 | 1018.5 |
| 20260502191412 | 8 | 306 | 19.3 | 22.5 | 0.00 | 0.00 | 0.00 | 46 | 1018.6 |
| 20260502190909 | 8 | 306 | 19.3 | 22.5 | 0.00 | 0.00 | 0.00 | 46 | 1018.8 |
| 20260502190406 | 7 | 276 | 14.5 | 16.1 | 0.00 | 0.00 | 0.00 | 48 | 1018.7 |
| 20260502185903 | 8 | 307 | 17.7 | 20.9 | 0.00 | 0.00 | 0.00 | 49 | 1018.7 |
| 20260502185358 | 7 | 270 | 17.7 | 20.9 | 0.00 | 0.00 | 0.00 | 47 | 1018.8 |
| 20260502184855 | 7 | 298 | 17.7 | 22.5 | 0.00 | 0.00 | 0.00 | 51 | 1018.9 |
| 20260502184350 | 7 | 348 | 8.0 | 9.7 | 0.00 | 0.00 | 0.00 | 51 | 1018.8 |
| 20260502183848 | 7 | 276 | 20.9 | 25.7 | 0.00 | 0.00 | 0.00 | 48 | 1018.9 |
| 20260502183343 | 7 | 300 | 14.5 | 16.1 | 0.00 | 0.00 | 0.00 | 48 | 1018.9 |
| 20260502182838 | 6 | 300 | 9.7 | 12.9 | 0.00 | 0.00 | 0.00 | 48 | 1018.9 |
| 20260502182334 | 6 | 300 | 9.7 | 12.9 | 0.00 | 0.00 | 0.00 | 48 | 1018.8 |
| 20260502181831 | 6 | 300 | 9.7 | 12.9 | 0.00 | 0.00 | 0.00 | 48 | 1019.0 |
| 20260502181330 | 7 | 353 | 9.7 | 11.3 | 0.00 | 0.00 | 0.00 | 45 | 1019.0 |
| 20260502180828 | 7 | 353 | 9.7 | 11.3 | 0.00 | 0.00 | 0.00 | 45 | 1019.0 |
| 20260502180325 | 7 | 275 | 8.0 | 12.9 | 0.00 | 0.00 | 0.00 | 46 | 1019.1 |
| 20260502170243 | 6 | 296 | 6.4 | 6.4 | 0.00 | 0.00 | 0.00 | 50 | 1019.3 |
| 20260502164230 | 6 | 340 | 6.4 | 6.4 | 0.00 | 0.00 | 0.00 | 48 | 1019.6 |
| 20260502163726 | 6 | 268 | 6.4 | 6.4 | 0.00 | 0.00 | 0.00 | 47 | 1019.4 |
| 20260502163223 | 6 | 277 | 9.7 | 9.7 | 0.00 | 0.00 | 0.00 | 49 | 1019.8 |
| 20260502162720 | 6 | 299 | 3.2 | 6.4 | 0.00 | 0.00 | 0.00 | 47 | 1019.6 |
| 20260502162216 | 6 | 300 | 9.7 | 12.9 | 0.00 | 0.00 | 0.00 | 48 | 1019.9 |
| 20260502161713 | 6 | 347 | 9.7 | 16.1 | 0.00 | 0.00 | 0.00 | 48 | 1019.9 |
| 20260502161209 | 6 | 319 | 11.3 | 14.5 | 0.00 | 0.00 | 0.00 | 52 | 1020.0 |
| 20260502160708 | 6 | 318 | 12.9 | 16.1 | 0.00 | 0.00 | 0.00 | 49 | 1019.9 |
| 20260502160207 | 6 | 286 | 14.5 | 16.1 | 0.00 | 0.00 | 0.00 | 47 | 1019.9 |
| 20260502152126 | 5 | 290 | 11.3 | 14.5 | 0.00 | 0.00 | 0.00 | 52 | 1020.0 |
| 20260502151623 | 5 | 328 | 12.9 | 16.1 | 0.00 | 0.00 | 0.00 | 52 | 1019.9 |
| 20260502151121 | 5 | 275 | 6.4 | 11.3 | 0.00 | 0.00 | 0.00 | 55 | 1020.0 |
| 20260502150618 | 5 | 257 | 14.5 | 17.7 | 0.00 | 0.00 | 0.00 | 52 | 1020.0 |
| 20260502150114 | 5 | 327 | 11.3 | 14.5 | 0.00 | 0.00 | 0.00 | 51 | 1020.0 |
| 20260502130503 | 3 | 271 | 6.4 | 9.7 | 0.00 | 0.00 | 0.00 | 74 | 1020.1 |
| 20260502123446 | 2 | 315 | 6.4 | 11.3 | 0.00 | 0.00 | 0.00 | 80 | 1020.0 |
| 20260502122943 | 2 | 292 | 4.8 | 12.9 | 0.00 | 0.00 | 0.00 | 80 | 1020.2 |
| 20260502122439 | 2 | 324 | 4.8 | 11.3 | 0.00 | 0.00 | 0.00 | 81 | 1020.3 |
| 20260502121937 | 2 | 338 | 4.8 | 6.4 | 0.00 | 0.00 | 0.00 | 81 | 1020.0 |
| 20260502121434 | 1 | 310 | 8.0 | 9.7 | 0.00 | 0.00 | 0.00 | 80 | 1019.9 |
| 20260502120932 | 1 | 319 | 4.8 | 9.7 | 0.00 | 0.00 | 0.00 | 81 | 1020.0 |
| 20260502120428 | 1 | 347 | 3.2 | 9.7 | 0.00 | 0.00 | 0.00 | 82 | 1020.0 |
| 20260502115925 | 1 | 334 | 8.0 | 9.7 | 0.00 | 0.00 | 0.00 | 82 | 1020.0 |
| 20260502115422 | 1 | 350 | 4.8 | 6.4 | 0.00 | 0.00 | 0.00 | 83 | 1019.8 |
| 20260502114918 | 1 | 342 | 4.8 | 9.7 | 0.00 | 0.00 | 0.00 | 83 | 1019.9 |
| 20260502114415 | 0 | 317 | 4.8 | 9.7 | 0.00 | 0.00 | 0.00 | 84 | 1019.5 |
| 20260502113912 | 0 | 314 | 4.8 | 6.4 | 0.00 | 0.00 | 0.00 | 84 | 1019.6 |
| 20260502113410 | 0 | 356 | 4.8 | 6.4 | 0.00 | 0.00 | 0.00 | 84 | 1019.6 |
| 20260502112908 | 0 | 346 | 1.6 | 6.4 | 0.00 | 0.00 | 0.00 | 85 | 1019.6 |
| 20260502112405 | 0 | 329 | 4.8 | 6.4 | 0.00 | 0.00 | 0.00 | 85 | 1019.5 |
| 20260502111902 | 0 | 355 | 3.2 | 6.4 | 0.00 | 0.00 | 0.00 | 86 | 1019.6 |
| 20260502111359 | 0 | 323 | 1.6 | 3.2 | 0.00 | 0.00 | 0.00 | 87 | 1019.4 |
| 20260502110857 | 0 | 329 | 1.6 | 1.6 | 0.00 | 0.00 | 0.00 | 87 | 1019.5 |
| 20260502110355 | 0 | 318 | 3.2 | 3.2 | 0.00 | 0.00 | 0.00 | 87 | 1019.4 |
| 20260502105852 | 0 | 311 | 1.6 | 3.2 | 0.00 | 0.00 | 0.00 | 88 | 1019.3 |
| 20260502105349 | 0 | 308 | 1.6 | 3.2 | 0.00 | 0.00 | 0.00 | 88 | 1019.3 |
| 20260502104847 | 0 | 312 | 3.2 | 3.2 | 0.00 | 0.00 | 0.00 | 89 | 1019.5 |
| 20260502104344 | -1 | 307 | 1.6 | 3.2 | 0.00 | 0.00 | 0.00 | 88 | 1019.4 |
| 20260502103841 | 0 | 294 | 3.2 | 4.8 | 0.00 | 0.00 | 0.00 | 88 | 1019.4 |
| 20260502103338 | 0 | 311 | 1.6 | 3.2 | 0.00 | 0.00 | 0.00 | 88 | 1019.5 |
| 20260502102835 | 0 | 306 | 1.6 | 1.6 | 0.00 | 0.00 | 0.00 | 88 | 1019.3 |
| 20260502102332 | 0 | 297 | 3.2 | 3.2 | 0.00 | 0.00 | 0.00 | 88 | 1019.4 |
| 20260502101830 | 0 | 303 | 1.6 | 3.2 | 0.00 | 0.00 | 0.00 | 88 | 1019.3 |
| 20260502101327 | 0 | 307 | 1.6 | 3.2 | 0.00 | 0.00 | 0.00 | 87 | 1019.2 |
| 20260502100826 | 0 | 312 | 1.6 | 3.2 | 0.00 | 0.00 | 0.00 | 87 | 1019.1 |
| 20260502100325 | 0 | 317 | 1.6 | 1.6 | 0.00 | 0.00 | 0.00 | 87 | 1019.3 |
| 20260502091258 | 0 | 306 | 1.6 | 1.6 | 0.00 | 0.00 | 0.00 | 84 | 1019.1 |
| 20260502090756 | 0 | 310 | 1.6 | 1.6 | 0.00 | 0.00 | 0.00 | 83 | 1018.9 |
| 20260502090252 | 0 | 298 | 3.2 | 3.2 | 0.00 | 0.00 | 0.00 | 82 | 1018.8 |
| 20260502071153 | 2 | 301 | 3.2 | 4.8 | 0.00 | 0.00 | 0.00 | 74 | 1018.4 |
| 20260502070651 | 2 | 306 | 3.2 | 3.2 | 0.00 | 0.00 | 0.00 | 74 | 1018.5 |
| 20260502070149 | 2 | 305 | 3.2 | 4.8 | 0.00 | 0.00 | 0.00 | 72 | 1018.5 |
| 20260502065647 | 2 | 307 | 4.8 | 4.8 | 0.00 | 0.00 | 0.00 | 71 | 1018.6 |
| 20260502065144 | 2 | 315 | 3.2 | 4.8 | 0.00 | 0.00 | 0.00 | 72 | 1018.5 |
| 20260502064643 | 3 | 336 | 6.4 | 9.7 | 0.00 | 0.00 | 0.00 | 70 | 1018.5 |
| 20260502064139 | 3 | 342 | 4.8 | 6.4 | 0.00 | 0.00 | 0.00 | 71 | 1018.5 |
| 20260502063637 | 3 | 335 | 3.2 | 4.8 | 0.00 | 0.00 | 0.00 | 70 | 1018.6 |
| 20260502063135 | 3 | 322 | 3.2 | 3.2 | 0.00 | 0.00 | 0.00 | 72 | 1018.7 |
| 20260502062632 | 3 | 349 | 3.2 | 3.2 | 0.00 | 0.00 | 0.00 | 72 | 1018.6 |
| 20260502062129 | 3 | 335 | 3.2 | 6.4 | 0.00 | 0.00 | 0.00 | 71 | 1018.7 |
| 20260502061628 | 3 | 320 | 1.6 | 3.2 | 0.00 | 0.00 | 0.00 | 72 | 1018.7 |
| 20260502061125 | 3 | 302 | 6.4 | 6.4 | 0.00 | 0.00 | 0.00 | 70 | 1018.7 |
| 20260502060625 | 3 | 322 | 3.2 | 4.8 | 0.00 | 0.00 | 0.00 | 70 | 1018.8 |
| 20260502060122 | 3 | 315 | 1.6 | 3.2 | 0.00 | 0.00 | 0.00 | 69 | 1018.7 |
| 20260502055620 | 3 | 314 | 4.8 | 4.8 | 0.00 | 0.00 | 0.00 | 68 | 1018.8 |
| 20260502055117 | 3 | 339 | 3.2 | 6.4 | 0.00 | 0.00 | 0.00 | 65 | 1018.8 |
| 20260502054616 | 3 | 340 | 3.2 | 4.8 | 0.00 | 0.00 | 0.00 | 66 | 1018.8 |
| 20260502054113 | 3 | 9 | 3.2 | 6.4 | 0.00 | 0.00 | 0.00 | 65 | 1018.7 |
| 20260502053610 | 3 | 337 | 8.0 | 9.7 | 0.00 | 0.00 | 0.00 | 65 | 1018.9 |
| 20260502053107 | 3 | 336 | 3.2 | 4.8 | 0.00 | 0.00 | 0.00 | 65 | 1018.8 |
| 20260502052606 | 3 | 337 | 3.2 | 4.8 | 0.00 | 0.00 | 0.00 | 65 | 1018.9 |
| 20260502052104 | 3 | 341 | 1.6 | 4.8 | 0.00 | 0.00 | 0.00 | 66 | 1018.7 |
| 20260502051601 | 3 | 321 | 3.2 | 4.8 | 0.00 | 0.00 | 0.00 | 65 | 1018.8 |
| 20260502051059 | 3 | 349 | 1.6 | 3.2 | 0.00 | 0.00 | 0.00 | 66 | 1018.8 |